User: anonymous   Login
Location: Prague
(50.0830°N, 14.4670°E)
Time: 19:52:53
(UTC+02:00)
Language:

ISS - Orbit

View from above orbital plane
View from above orbital plane
View from above satellite
View from above satellite

Ground track
Ground track

The orbit data is extracted from the following two-line orbital elements,

1 25544U 98067A   21298.50904580  .00003152  00000-0  65828-4 0  9997
2 25544  51.6444  58.3286 0003927 136.0931 322.0421 15.48789637308791
Epoch (UTC): 25 October 2021 12:13:01
Eccentricity: 0.0003927
inclination: 51.6444°
perigee height: 417 km
apogee height: 423 km
right ascension of ascending node: 58.3286°
argument of perigee: 136.0931°
revolutions per day: 15.48789637
mean anomaly at epoch: 322.0421°
orbit number at epoch: 30879

The dashed part of the orbit path shows where the satellite is in the earth's shadow,  

DLR